Regional Weather Roundup
Issued by NWS

Home | Current Version | Previous Version | Text Only | Print | Product List | Glossary Off
Versions: 1 2 3 4 5 6 7 8 9 10 11 12 13 14 15 16 17 18 19 20 21 22 23 24 25 26 27 28 29 30 31 32 33 34 35 36 37 38 39 40 41 42 43 44 45 46 47 48 49 50

000
ASUS43 KIND 292009
RWRIN

WEATHER ROUNDUP FOR INDIANA
NATIONAL WEATHER SERVICE INDIANAPOLIS IN
400 PM EDT FRI AUG 29 2014

NOTE: "FAIR" INDICATES FEW OR NO CLOUDS BELOW 12,000 FEET WITH NO
SIGNIFICANT WEATHER AND/OR OBSTRUCTIONS TO VISIBILITY.

* - STATION DOES NOT REPORT WEATHER SUCH AS PRECIPITATION OR FOG.

+ - STATION NOT QUALITY CONTROLLED BY THE NATIONAL WEATHER SERVICE.
    USE DATA WITH CAUTION...ESPECIALLY DEWPOINT AND RELATIVE
    HUMIDITY OBSERVATIONS.

INZ001>003-010>013-019-020-292100-
NORTHWEST INDIANA

CITY           SKY/WX    TMP DP  RH WIND       PRES   REMARKS
GARY /AIRPORT/ PTSUNNY   84  72  65 SE10      29.94F
KNOX *+        PTSUNNY   76  70  82 SE8       29.97F
LA PORTE +     CLOUDY    77  73  87 SE6       29.98F
MICHIGAN CITY+ CLOUDY    79  70  73 SE3       29.97F
MONTICELLO +   SUNNY     83  73  70 S3        29.96F
RENSSELAER +   SUNNY     82  75  78 SE6       29.96F
VALPARAISO     PTSUNNY   81  72  74 S14       29.97F

$$

LMZ046-743>745-292100-
SOUTHERN LAKE MICHIGAN

STATION/POSITION TIME  TEMP WIND        PRES
                       AIR  DIR/SP/G
                 (UTC) (F)  (DEG/KT/KT) (MB)
MICHIGAN CITY    2000   77  130/ 11/ 14   N/A

$$

INZ004-005-014>016-021>024-292100-
NORTH CENTRAL INDIANA

CITY           SKY/WX    TMP DP  RH WIND       PRES   REMARKS
ELKHART        PTSUNNY   81  68  65 S8        30.00
GOSHEN         MOSUNNY   83  69  62 SE12      30.00F
LOGANSPORT +   MOSUNNY   82  68  61 SE12      29.98F
PERU/GRISSOM   MOSUNNY   83  74  73 S9        29.99F
ROCHESTER +    PTSUNNY   81  72  74 S3        30.00F
SOUTH BEND     LGT RAIN  77  72  84 S9        29.99F
WARSAW +       PTSUNNY   81  70  69 SE6       30.01S

$$

INZ006>009-017-018-025>027-292100-
NORTHEAST INDIANA

CITY           SKY/WX    TMP DP  RH WIND       PRES   REMARKS
ANGOLA *+      MOSUNNY   84  68  58 S9        30.02F
AUBURN +       MOSUNNY   82  64  54 E6        30.03F
FORT WAYNE     MOSUNNY   82  69  64 E9        30.02F
HUNTINGTON +   MOSUNNY   81  70  68 SE7       30.01F

$$

INZ028-029-035-036-043>045-051>053-292100-
WEST CENTRAL INDIANA

CITY           SKY/WX    TMP DP  RH WIND       PRES   REMARKS
GREENCASTLE +  RAIN      75  68  78 NW7G32    29.99S
LAFAYETTE      MOSUNNY   85  72  65 S6        29.95F
TERRE HAUTE    SUNNY     89  72  56 S12       29.94F HX  96

$$

INZ030>032-037>040-046>048-054>057-064-065-292100-
CENTRAL INDIANA

CITY           SKY/WX    TMP DP  RH WIND       PRES   REMARKS
ANDERSON       SUNNY     82  66  57 SE12G17   30.02F
CP ATTERBURY + MOSUNNY   88  70  55 S10       29.98F
FRANKFORT +    SUNNY     84  73  70 SE9       29.99F
GREENWOOD *+   MOSUNNY   86  73  66 SE8       29.99
INDIANAPOLIS   MOSUNNY   86  70  58 SE13      29.97F
-EAGLE CREEK   SUNNY     85  69  58 SE12      29.98F
KOKOMO *+      MOSUNNY   81  70  69 SE12      29.99F
MARION +       PTSUNNY   82  67  59 SE8       30.01F
MT COMFORT *+  SUNNY     84  70  61 SE10      30.00F
SHELBYVILLE    MOSUNNY   86  71  60 SE12      29.99F
ZIONSVILLE +   SUNNY     84  70  62 SE6       29.99F

$$

INZ033-034-041-042-049-050-058-059-292100-
EAST CENTRAL INDIANA

CITY           SKY/WX    TMP DP  RH WIND       PRES   REMARKS
MUNCIE         SUNNY     82  68  62 SE6       30.01F

$$

INZ060-061-067>069-081>083-085>088-292100-
SOUTHWEST INDIANA

CITY           SKY/WX    TMP DP  RH WIND       PRES   REMARKS
EVANSVILLE     MOSUNNY   89  68  49 S6        29.95F
WASHINGTON +   MOSUNNY   89  73  60 S10       29.94F HX  97

$$

INZ062-063-066-070>080-084-089>092-292100-
SOUTH CENTRAL AND SOUTHEAST INDIANA

CITY           SKY/WX    TMP DP  RH WIND       PRES   REMARKS
BLOOMINGTON    MOSUNNY   88  72  58 S9        29.97F
NORTH VERNON + MOSUNNY   88  72  58 S7        30.01
SEYMOUR +      MOSUNNY   88  63  42 S8        29.98

$$



USA.gov is the U.S. government's official web portal to all federal, state and local government web resources and services.